User: anonymous   Login
Location: Boiro
(42.6475°N, 8.8834°W)
Time: 03:42:30
(UTC+02:00)
Language:

POLYITAN 1 - Orbit

View from above orbital plane
View from above orbital plane
View from above satellite
View from above satellite

Ground track
Ground track

The orbit data is extracted from the following two-line orbital elements,

1 40042U 14033AJ  22229.49025694  .00002166  00000-0  22593-3 0  9996
2 40042  97.9719 168.6537 0013424 202.4946 157.5685 14.90779321443259
Epoch (UTC): 17 August 2022 11:45:58
Eccentricity: 0.0013424
inclination: 97.9719°
perigee height: 586 km
apogee height: 605 km
right ascension of ascending node: 168.6537°
argument of perigee: 202.4946°
revolutions per day: 14.90779321
mean anomaly at epoch: 157.5685°
orbit number at epoch: 44325

The dashed part of the orbit path shows where the satellite is in the earth's shadow,  

DLR